Friday Harbor, WA
on Sunday, January 27, 2013

Sunday
Previous Day Next Day
Daily Summary
 ActualAverageRecord
Temperature
Mean Temperature °F °F  
Max Temperature 41°F 44°F 50°F (2003)
Min Temperature 36°F 36°F 24°F (1997)
Degree Days
Heating Degree Days 26    
Moisture
Dew Point 38°F   
Average Humidity 94    
Maximum Humidity 100    
Minimum Humidity 89    
Precipitation
Precipitation 0.13 in in in ()
Wind
Wind Speed 3 mph   
Max Wind Speed 8 mph   
Max Gust Speed mph   
Visibility 8 miles   
Events Rain   
Averages and records for this station are not official NWS values.
Key: T is trace of precipitation, MM is missing value
Source: NWS Daily Summary
Seasonal Weather Averages
Time(PST)TemperatureDew PointHumidity Pressure Visibility Wind DirectionWind SpeedGust SpeedPrecipitationEvents Conditions
12:16 AM 39.2°F 39.2°F 100% 30.02 in 6.0 miles Calm Calm - 0.00 in Rain Light Rain
12:53 AM 39.9°F 39.0°F 97% 30.01 in 6.0 miles Calm Calm - 0.00 in   Overcast
1:22 AM 37.4°F 37.4°F 100% 30.01 in 4.0 miles Calm Calm - N/A   Overcast
1:53 AM 36.0°F 35.1°F 97% 30.02 in 10.0 miles Calm Calm - N/A   Clear
2:53 AM 37.9°F 37.0°F 97% 30.02 in 10.0 miles Calm Calm - N/A   Overcast
3:00 AM 37.4°F 37.4°F 100% 30.02 in 10.0 miles Calm Calm - N/A   Overcast
3:53 AM 37.9°F 37.0°F 97% 30.01 in 10.0 miles Calm Calm - N/A   Overcast
4:53 AM 37.9°F 36.0°F 93% 30.01 in 10.0 miles WSW 4.6 mph - N/A   Scattered Clouds
5:53 AM 36.0°F 35.1°F 97% 30.01 in 10.0 miles Calm Calm - N/A   Scattered Clouds
6:53 AM 36.0°F 36.0°F 100% 30.01 in 10.0 miles Calm Calm - N/A   Overcast
7:53 AM 39.0°F 37.0°F 93% 30.01 in 10.0 miles SW 3.5 mph - 0.00 in Rain Light Rain
8:53 AM 41.0°F 39.0°F 93% 30.02 in 10.0 miles SSW 5.8 mph - 0.00 in Rain Light Rain
9:53 AM 41.0°F 39.0°F 93% 30.03 in 9.0 miles SW 4.6 mph - 0.00 in Rain Light Rain
10:04 AM 41.0°F 39.2°F 93% 30.03 in 5.0 miles SSW 6.9 mph - 0.01 in Rain Light Rain
10:48 AM 41.0°F 39.2°F 93% 30.03 in 4.0 miles SSW 5.8 mph - 0.03 in Rain Light Rain
10:53 AM 41.0°F 39.0°F 93% 30.04 in 4.0 miles SSW 6.9 mph - 0.04 in Rain Light Rain
11:53 AM 39.9°F 37.9°F 93% 30.02 in 8.0 miles South 4.6 mph - 0.03 in Rain Light Rain
12:53 PM 39.9°F 37.9°F 93% 30.00 in 6.0 miles South 4.6 mph - 0.02 in Rain Light Rain
1:29 PM 39.2°F 37.4°F 93% 29.99 in 8.0 miles South 3.5 mph - 0.01 in Rain Light Rain
1:53 PM 39.9°F 39.0°F 97% 29.99 in 5.0 miles SSW 4.6 mph - 0.02 in Rain Light Rain
2:01 PM 39.2°F 37.4°F 93% 29.99 in 5.0 miles SSW 4.6 mph - 0.00 in Rain Light Rain
2:19 PM 39.2°F 37.4°F 93% 29.99 in 5.0 miles SSW 3.5 mph - 0.01 in Rain Light Rain
2:53 PM 39.9°F 39.0°F 97% 29.99 in 8.0 miles South 4.6 mph - 0.02 in Rain Light Rain
3:53 PM 41.0°F 39.0°F 93% 29.99 in 10.0 miles South 3.5 mph - 0.00 in Rain Light Rain
4:26 PM 41.0°F 39.2°F 93% 29.98 in 10.0 miles SSW 5.8 mph - 0.00 in Rain Light Rain
4:53 PM 41.0°F 37.9°F 89% 29.98 in 10.0 miles SSW 8.1 mph - 0.00 in Rain Light Rain
5:53 PM 41.0°F 39.0°F 93% 29.98 in 10.0 miles South 4.6 mph - 0.00 in Rain Light Rain
6:26 PM 41.0°F 39.2°F 93% 29.97 in 10.0 miles SSE 3.5 mph - 0.00 in   Overcast
6:53 PM 41.0°F 39.0°F 93% 29.98 in 10.0 miles South 4.6 mph - 0.00 in Rain Light Rain
7:53 PM 41.0°F 39.0°F 93% 29.98 in 10.0 miles SSW 8.1 mph - 0.00 in Rain Light Rain
8:25 PM 41.0°F 39.2°F 93% 29.98 in 10.0 miles SSW 5.8 mph - 0.00 in Rain Light Rain
8:53 PM 39.9°F 37.9°F 93% 29.98 in 10.0 miles South 4.6 mph - 0.00 in   Overcast
9:42 PM 41.0°F 39.2°F 93% 29.97 in 10.0 miles South 6.9 mph - 0.00 in   Overcast
9:53 PM 41.0°F 39.0°F 93% 29.97 in 10.0 miles SSW 4.6 mph - 0.00 in   Overcast
9:58 PM 41.0°F 39.2°F 93% 29.97 in 10.0 miles SW 5.8 mph - N/A   Overcast
10:04 PM 41.0°F 39.2°F 93% 29.97 in 10.0 miles Variable 3.5 mph - N/A   Overcast
10:29 PM 41.0°F 39.2°F 93% 29.97 in 10.0 miles WSW 4.6 mph - N/A   Mostly Cloudy
10:53 PM 39.9°F 39.0°F 97% 29.97 in 10.0 miles WSW 3.5 mph - N/A   Mostly Cloudy
11:53 PM 37.9°F 36.0°F 93% 29.99 in 10.0 miles West 3.5 mph - N/A   Clear
Moon Phase
Jan. 27 Feb. 03 Feb. 10 Feb. 17 Feb. 25
Sunrise:07:47 AM (PST) Moon Rise:06:12 PM (PST)1/27
Sunset:05:03 PM (PST) Moon Set:07:35 AM (PST)1/27

Copyright © 2014 The Weather Underground, Inc.